Weather History for Fort Yukon, AK

Change the Weather History Date:

Monday, May 20, 2013

  Actual Average Record
Temperature  
Mean Temperature 40 °F -  
Max Temperature 51 °F 56 °F 71 °F (2002)
Min Temperature 28 °F 35 °F 28 °F (2013)
Degree Days  
Heating Degree Days 26    
Moisture  
Dew Point 21 °F    
Average Humidity 42    
Maximum Humidity 74    
Minimum Humidity 18    
Precipitation  
Precipitation 0.00 in - - ()
Sea Level Pressure  
Sea Level Pressure 30.53 in    
Wind  
Wind Speed 3 mph (West)    
Max Wind Speed 10 mph    
Max Gust Speed -    
Visibility 10 miles    
Events      
Averages and records for this station are not official NWS values.
T = Trace of Precipitation, MM = Missing Value Source: NWS Daily Summary

Daily Weather History Graph

Daily Weather History Graph

Search for Another Location

Airport:

Trip Planner

Search our weather history database for the weather conditions in past years. The results will help you decide how hot, cold, wet, or windy it might be!

Date:

Astronomy

May. 20, 2013 Rise Set
Actual Time 3:30 AM AKDT 11:48 PM AKDT
Civil Twilight Sun does not rise Sun does not rise
Nautical Twilight Sun does not rise Sun does not rise
Astronomical Twilight Sun does not rise Sun does not rise
Moon 4:44 PM AKDT (5/20) 3:05 AM AKDT (5/20)
Length of Visible Light 24h 00m
Length of Day
20h 18m
Waxing Gibbous, 76% of the Moon is Illuminated
May 20
Waxing Gibbous
May 24
Full
May 31
Last Quarter
Jun 8
New
Jun 16
First Quarter

Hourly Weather History & Observations

Time (AKDT) Temp. Windchill Dew Point Humidity Pressure Visibility Wind Dir Wind Speed Gust Speed Precip Events Conditions
12:16 AM 30.2 °F - 19.4 °F 64% 30.52 in 8.0 mi Calm Calm - N/A   Clear
12:36 AM 28.4 °F - 21.2 °F 74% 30.52 in 3.0 mi Calm Calm - N/A   Clear
12:56 AM 30.2 °F - 19.4 °F 64% 30.52 in 8.0 mi Calm Calm - N/A   Clear
1:16 AM 30.2 °F - 19.4 °F 64% 30.53 in 10.0 mi Calm Calm - N/A   Clear
1:36 AM 30.2 °F - 19.4 °F 64% 30.53 in 10.0 mi Calm Calm - N/A   Clear
1:56 AM 30.2 °F - 19.4 °F 64% 30.53 in 10.0 mi Calm Calm - N/A   Clear
2:16 AM 28.4 °F 24.6 °F 17.6 °F 64% 30.54 in 10.0 mi South 3.5 mph - N/A   Clear
2:36 AM 30.2 °F 26.7 °F 17.6 °F 60% 30.54 in 10.0 mi SSW 3.5 mph - N/A   Clear
2:56 AM 32.0 °F 27.5 °F 17.6 °F 55% 30.54 in 10.0 mi SSW 4.6 mph - N/A   Clear
3:16 AM 32.0 °F 27.5 °F 17.6 °F 55% 30.54 in 10.0 mi SSW 4.6 mph - N/A   Clear
3:36 AM 32.0 °F 27.5 °F 17.6 °F 55% 30.54 in 10.0 mi SSW 4.6 mph - N/A   Clear
3:56 AM 30.2 °F 25.4 °F 17.6 °F 60% 30.55 in 10.0 mi SW 4.6 mph - N/A   Clear
4:36 AM 30.2 °F 26.7 °F 17.6 °F 60% 30.56 in 10.0 mi SW 3.5 mph - N/A   Partly Cloudy
4:56 AM 32.0 °F 28.7 °F 17.6 °F 55% 30.56 in 10.0 mi SW 3.5 mph - N/A   Mostly Cloudy
5:16 AM 32.0 °F - 17.6 °F 55% 30.56 in 10.0 mi Calm Calm - N/A   Mostly Cloudy
5:36 AM 32.0 °F - 17.6 °F 55% 30.56 in 10.0 mi Calm Calm - N/A   Clear
5:56 AM 33.8 °F 30.8 °F 17.6 °F 52% 30.56 in 10.0 mi SW 3.5 mph - N/A   Clear
6:16 AM 33.8 °F 29.6 °F 17.6 °F 52% 30.56 in 10.0 mi SW 4.6 mph - N/A   Clear
6:36 AM 35.6 °F 30.7 °F 19.4 °F 52% 30.56 in 10.0 mi WSW 5.8 mph - N/A   Clear
6:56 AM 35.6 °F 30.7 °F 19.4 °F 52% 30.56 in 10.0 mi SW 5.8 mph - N/A   Clear
7:16 AM 37.4 °F 33.8 °F 19.4 °F 48% 30.56 in 10.0 mi WSW 4.6 mph - N/A   Clear
7:36 AM 37.4 °F 33.8 °F 19.4 °F 48% 30.56 in 10.0 mi WSW 4.6 mph - N/A   Clear
7:56 AM 39.2 °F 35.9 °F 19.4 °F 45% 30.56 in 10.0 mi WSW 4.6 mph - N/A   Clear
8:16 AM 41.0 °F 37.1 °F 21.2 °F 45% 30.56 in 10.0 mi WSW 5.8 mph - N/A   Clear
8:36 AM 42.8 °F 39.3 °F 21.2 °F 42% 30.56 in 10.0 mi West 5.8 mph - N/A   Clear
8:56 AM 42.8 °F 37.5 °F 23.0 °F 46% 30.56 in 10.0 mi West 9.2 mph - N/A   Clear
9:16 AM 42.8 °F 38.0 °F 24.8 °F 49% 30.57 in 10.0 mi West 8.1 mph - N/A   Clear
9:36 AM 44.6 °F 39.7 °F 24.8 °F 46% 30.57 in 10.0 mi West 9.2 mph - N/A   Clear
9:56 AM 44.6 °F 40.2 °F 23.0 °F 43% 30.57 in 10.0 mi West 8.1 mph - N/A   Clear
10:16 AM 44.6 °F 39.2 °F 23.0 °F 43% 30.57 in 10.0 mi West 10.4 mph - N/A   Clear
10:56 AM 46.4 °F 42.9 °F 24.8 °F 43% 30.56 in 10.0 mi West 6.9 mph - N/A   Clear
11:16 AM 46.4 °F 43.5 °F 24.8 °F 43% 30.56 in 10.0 mi West 5.8 mph - N/A   Clear
11:36 AM 46.4 °F 42.9 °F 24.8 °F 43% 30.56 in 10.0 mi WNW 6.9 mph - N/A   Clear
11:56 AM 46.4 °F 42.9 °F 24.8 °F 43% 30.56 in 10.0 mi West 6.9 mph - N/A   Clear
12:16 PM 48.2 °F - 24.8 °F 40% 30.56 in 10.0 mi WSW 4.6 mph - N/A   Clear
12:36 PM 48.2 °F - 24.8 °F 40% 30.56 in 10.0 mi West 5.8 mph - N/A   Clear
12:56 PM 48.2 °F - 23.0 °F 37% 30.55 in 10.0 mi West 8.1 mph - N/A   Clear
1:16 PM 48.2 °F - 23.0 °F 37% 30.55 in 10.0 mi WSW 4.6 mph - N/A   Clear
1:36 PM 50.0 °F - 23.0 °F 35% 30.55 in 10.0 mi WSW 5.8 mph - N/A   Clear
1:56 PM 48.2 °F - 21.2 °F 34% 30.54 in 10.0 mi West 6.9 mph - N/A   Clear
2:16 PM 50.0 °F - 23.0 °F 35% 30.54 in 10.0 mi West 6.9 mph - N/A   Clear
2:36 PM 50.0 °F - 23.0 °F 35% 30.54 in 10.0 mi NW 5.8 mph - N/A   Clear
2:56 PM 51.8 °F - 23.0 °F 33% 30.53 in 10.0 mi WNW 8.1 mph - N/A   Clear
3:16 PM 51.8 °F - 23.0 °F 33% 30.53 in 10.0 mi West 8.1 mph - N/A   Clear
3:36 PM 51.8 °F - 21.2 °F 30% 30.53 in 10.0 mi WNW 6.9 mph - N/A   Clear
3:56 PM 51.8 °F - 21.2 °F 30% 30.52 in 10.0 mi WNW 6.9 mph - N/A   Clear
4:16 PM 51.8 °F - 21.2 °F 30% 30.52 in 10.0 mi WNW 5.8 mph - N/A   Clear
4:36 PM 51.8 °F - 21.2 °F 30% 30.52 in 10.0 mi West 8.1 mph - N/A   Clear
4:56 PM 51.8 °F - 21.2 °F 30% 30.51 in 10.0 mi WNW 5.8 mph - N/A   Clear
5:16 PM 51.8 °F - 21.2 °F 30% 30.51 in 10.0 mi West 4.6 mph - N/A   Clear
5:36 PM 51.8 °F - 21.2 °F 30% 30.50 in 10.0 mi NW 3.5 mph - N/A   Clear
5:56 PM 51.8 °F - 21.2 °F 30% 30.50 in 10.0 mi West 4.6 mph - N/A   Clear
6:16 PM 51.8 °F - 21.2 °F 30% 30.50 in 10.0 mi WNW 3.5 mph - N/A   Clear
6:36 PM 51.8 °F - 21.2 °F 30% 30.49 in 10.0 mi West 4.6 mph - N/A   Clear
6:56 PM 51.8 °F - 19.4 °F 28% 30.49 in 10.0 mi Calm Calm - N/A   Clear
7:16 PM 51.8 °F - 19.4 °F 28% 30.48 in 10.0 mi WNW 3.5 mph - N/A   Clear
7:36 PM 51.8 °F - 21.2 °F 30% 30.48 in 10.0 mi Calm Calm - N/A   Clear
7:56 PM 51.8 °F - 19.4 °F 28% 30.48 in 10.0 mi Calm Calm - N/A   Clear
8:16 PM 51.8 °F - 19.4 °F 28% 30.47 in 10.0 mi WNW 3.5 mph - N/A   Clear
8:36 PM 51.8 °F - 19.4 °F 28% 30.47 in 10.0 mi Calm Calm - N/A   Clear
8:56 PM 51.8 °F - 19.4 °F 28% 30.47 in 10.0 mi Calm Calm - N/A   Clear
9:16 PM 51.8 °F - 19.4 °F 28% 30.47 in 10.0 mi Calm Calm - N/A   Clear
9:36 PM 50.0 °F - 19.4 °F 30% 30.47 in 10.0 mi Calm Calm - N/A   Clear
9:56 PM 50.0 °F - 19.4 °F 30% 30.47 in 10.0 mi Calm Calm - N/A   Clear
10:16 PM 48.2 °F - 19.4 °F 32% 30.47 in 10.0 mi Calm Calm - N/A   Clear
10:36 PM 46.4 °F - 19.4 °F 34% 30.47 in 10.0 mi Calm Calm - N/A   Clear
10:56 PM 44.6 °F - 19.4 °F 37% 30.47 in 10.0 mi Calm Calm - N/A   Clear
11:16 PM 42.8 °F - 21.2 °F 42% 30.47 in 8.0 mi Calm Calm - N/A   Clear
11:36 PM 39.2 °F - 23.0 °F 52% 30.47 in 10.0 mi Calm Calm - N/A   Clear
11:56 PM 37.4 °F - 24.8 °F 60% 30.46 in 10.0 mi Calm Calm - N/A   Clear